Regional Weather Roundup
Issued by NWS

Home | Current Version | Previous Version | Text Only | Print | Product List | Glossary Off
Versions: 1 2 3 4 5 6 7 8 9 10 11 12 13 14 15 16 17 18 19 20 21 22 23 24 25 26 27 28 29 30 31 32 33 34 35 36 37 38 39 40 41 42 43 44 45 46 47 48 49 50

000
ASUS45 KABQ 310910
RWRNM
WEATHER ROUNDUP FOR NEW MEXICO
NATIONAL WEATHER SERVICE ALBUQUERQUE NM
200 AM MST SAT JAN 31 2015

NOTE: "FAIR" MEANS FEW OR NO CLOUDS BELOW 12,000 FEET AGL WITH NO
       SIGNIFICANT WEATHER OR OBSTRUCTIONS TO VISION.

      THIS PRODUCT IS RELEASED AS TWO VERSIONS.  ONE VERSION NEAR
      THE TOP OF THE HOUR CONTAINING PRELIMINARY DATA FROM ALBUQUERQUE
      AND OTHER STATIONS.  A FINAL VERSION WITH ADDITIONAL DATA IS
      ISSUED ABOUT 10 MINUTES AFTER THE HOUR.

NMZ501-503-504-510>518-311000-
NORTHWEST PLATEAU/NORTHCENTRAL MOUNTAINS

CITY           SKY/WX    TMP DP  RH WIND       PRES   REMARKS
FARMINGTON     LGT SNOW  32  31  96 E5        29.93S FOG     WCI  27
LOS ALAMOS     MIX PCPN  28  28 100 S8        29.99S WCI  20
SANTA FE       CLOUDY    30  27  88 S8        29.98F WCI  22
TAOS           CLOUDY    28  27  93 CALM      29.99F
ANGEL FIRE     LGT SNOW  31  30  95 CALM      29.94F

$$
NMZ402-403-502-505>509-311000-
WESTCENTRAL MOUNTAINS/SOUTHWEST MOUNTAINS

CITY           SKY/WX    TMP DP  RH WIND       PRES   REMARKS
GALLUP         LGT SNOW  32  31  96 CALM      29.92F FOG
GRANTS         CLOUDY    32  31  98 S10       29.96S WCI  24
SILVER CITY    LGT RAIN  41  41 100 CALM      29.94F

$$
NMZ407-409-411-412-311000-
SOUTHERN DESERTS

CITY           SKY/WX    TMP DP  RH WIND       PRES   REMARKS
LORDSBURG      RAIN      43  41  93 SE5       29.93S
DEMING         LGT RAIN  42  42 100 NE14      29.92F FOG
LAS CRUCES     CLOUDY    41  40  95 SE9       29.94F
HOLLOMAN AFB   LGT RAIN  42  42 100 NW5       29.95S
ALAMOGORDO     LGT RAIN  41  41 100 NW9       29.96F
T OR C         LGT RAIN  40  40 100 CALM      29.93S FOG

$$
NMZ519>523-311000-
CENTRAL VALLEYS/CENTRAL HIGHLANDS

CITY           SKY/WX    TMP DP  RH WIND       PRES   REMARKS
ALBUQUERQUE    LGT RAIN  36  32  85 N6        29.98F WCI  31
DOUBLE EAGLE   LGT SNOW  31  30  96 N9        29.98F WCI  23
MORIARTY ARPT  MIX PCPN  30  28  94 CALM      30.02F
CLINES CORNERS NOT AVBL
BELEN          RAIN      34  34 100 NW7       29.97F WCI  28
SOCORRO        RAIN      38  38  99 CALM      29.96F VSB 3/4

$$
NMZ524>526-539-540-311000-
SOUTHCENTRAL MOUNTAINS

CITY           SKY/WX    TMP DP  RH WIND       PRES   REMARKS
RUIDOSO        FOG       28  28 100 SE7       30.00F VSB<1/4 WCI  21

$$
NMZ527>531-311000-
NORTHEAST HIGHLANDS/NORTHEAST PLAINS

CITY           SKY/WX    TMP DP  RH WIND       PRES   REMARKS
LAS VEGAS      LGT SNOW  26  24  92 S8        30.01F FOG     WCI  18
RATON          FOG       29  28  96 SW3       30.00F VSB 1/2
CLAYTON        LGT SNOW  32  31  96 SW14      30.03F FOG     WCI  22

$$
NMZ532>537-311000-
EASTCENTRAL PLAINS

CITY           SKY/WX    TMP DP  RH WIND       PRES   REMARKS
TUCUMCARI      LGT RAIN  35  33  92 CALM      30.07F FOG
CANNON AFB     CLOUDY    34  33  99 SE10      30.06F WCI  26
CLOVIS AIRPORT CLOUDY    34  30  86 SE10      30.08F WCI  26

$$
NMZ028-029-538-311000-
SOUTHEAST PLAINS

CITY           SKY/WX    TMP DP  RH WIND       PRES   REMARKS
ROSWELL        LGT RAIN  38  36  92 CALM      30.06F
ARTESIA        DRIZZLE   37  37 100 NE5       30.06F WCI  34
CARLSBAD       LGT RAIN  40  37  89 NW5       30.05F FOG
HOBBS          LGT RAIN  37  37 100 E9        30.07F WCI  31


$$


USA.gov is the U.S. government's official web portal to all federal, state and local government web resources and services.